Zurück zum Katalog

SL-8 DEB *

AktivLEO
NORAD 3931·DEBRIS·🇷🇺 Russia

Gestartet Mar 15, 1965 von Baikonur Cosmodrome

Loading…

Nächste Überflüge (nächste 24 Stunden)

TLE

AktuellSource: Space-Track

Epoche: Sep 14, 2026, 15:41 UTC

1 03931U 65020EV  26257.65349666 -.00000034  00000-0  42695-3 0  9993
2 03931  56.0658 347.1902 0190752 201.4108 309.5995 12.35218781788218

Verfolge SL-8 DEB * in Echtzeit mit AllMySat

Download on the App Store